Content
SEND FEEDBACK

Daily
Averages
Monthly
Summary
United States of America

PAONIA, COLORADO


Home > North America > United States > Colorado
Elevation: 5935 feet     Latitude: 38 52N     Longitude: 107 35W

WEATHER
 
SELECT A DAY
Number of Records: 57,565;   Date Range: 2/9/12 - 8/21/14
 
SHARE

PRINT THIS DATA

[ ← Previous Day ]
WEATHER ALMANAC - FEBRUARY 13, 2013
[ Next Day → ]
[ °C ]   °F
Weather ElementAverageHighLow
Temperature31.3 °F43.2 °F (3:35 pm)22.6 °F (7:55 am)
Dewpoint17.4 °F20.3 °F (9:35 pm)13.3 °F (12:35 pm)
Humidity59 %80 % (7:15 am)32 % (2:15 pm)
Barometer30.22 in30.28 in (1:15 am)30.15 in (4:35 pm)
Wind Speed2.3 mph6.9 mph (3:55 pm)
Weather ElementAverage
Visibility10 mi
Wind DirectionENE (71.4 °)

Weather ElementTotal
Precipitation---
Heating Degree Days32.1 (Base 65)
Averaged from 70 records on February 13, 2013
WEATHER CONDITIONS BREAKOUT
WIND DIRECTION BREAKOUT
WEATHER BY HOUR - FEBRUARY 13, 2013
[ °C ]   °F
Local TimeTemperatureDewpointHumidityBarometerVisibilityWind DirectionWind SpeedGust SpeedPrecipitationEventsConditions
12:35 AM26.2 °F17.4 °F69 %30.27 in10.0 miCalmOvercast
12:55 AM26.1 °F17.2 °F69 %30.27 in10.0 miEast (100°)3.5 mphOvercast
1:15 AM26.1 °F16.5 °F67 %30.28 in10.0 miESE (110°)3.5 mphOvercast
1:35 AM25.7 °F16.7 °F69 %30.28 in10.0 miSE (130°)3.5 mphOvercast
1:55 AM25.2 °F16.5 °F70 %30.26 in10.0 miCalmOvercast
2:15 AM24.6 °F17.6 °F75 %30.27 in10.0 miCalmOvercast
2:35 AM25.0 °F16.5 °F70 %30.26 in10.0 miESE (110°)3.5 mphOvercast
2:55 AM25.7 °F16.7 °F69 %30.26 in10.0 miEast (100°)3.5 mphOvercast
3:15 AM25.7 °F17.1 °F70 %30.25 in10.0 miCalmOvercast
3:35 AM25.7 °F17.6 °F71 %30.25 in10.0 miCalmOvercast
3:55 AM26.2 °F18.1 °F71 %30.25 in10.0 miCalmOvercast
4:15 AM26.4 °F17.8 °F70 %30.25 in10.0 miNNE (20°)3.5 mphOvercast
4:35 AM26.6 °F18.1 °F70 %30.25 in10.0 miCalmOvercast
4:55 AM26.4 °F18.3 °F71 %30.24 in10.0 miCalmOvercast
5:15 AM26.2 °F18.0 °F71 %30.25 in10.0 miCalmOvercast
5:35 AM25.2 °F18.9 °F77 %30.25 in10.0 miCalmOvercast
5:55 AM24.8 °F18.3 °F76 %30.25 in10.0 miCalmOvercast
6:15 AM24.8 °F18.1 °F76 %30.25 in10.0 miCalmMostly Cloudy
6:35 AM23.7 °F18.0 °F79 %30.25 in10.0 miCalmScattered Clouds
6:55 AM23.4 °F17.2 °F77 %30.25 in10.0 miCalmClear
7:15 AM22.8 °F17.4 °F80 %30.25 in10.0 miCalmClear
7:35 AM23.0 °F16.7 °F77 %30.26 in10.0 miNNW (340°)3.5 mphClear
7:55 AM22.6 °F16.5 °F77 %30.26 in10.0 miCalmClear
8:15 AM25.7 °F17.4 °F71 %30.26 in10.0 miCalmClear
8:35 AM27.1 °F17.4 °F67 %30.27 in10.0 miCalmClear
8:55 AM27.5 °F18.1 °F68 %30.28 in10.0 miCalmClear
9:15 AM28.6 °F17.1 °F62 %30.28 in10.0 miCalmClear
9:35 AM29.8 °F17.1 °F59 %30.28 in10.0 miCalmClear
9:55 AM30.2 °F14.5 °F52 %30.28 in10.0 miCalmClear
10:15 AM31.1 °F15.4 °F52 %30.28 in10.0 miCalmClear
10:35 AM32.0 °F15.6 °F51 %30.28 in10.0 miCalmClear
10:55 AM32.9 °F15.3 °F48 %30.27 in10.0 miCalmClear
11:15 AM34.0 °F13.8 °F44 %30.27 in10.0 miWSW (250°)3.5 mphClear
11:55 AM36.5 °F14.0 °F40 %30.25 in10.0 miCalmScattered Clouds
12:15 PM37.9 °F14.7 °F39 %30.23 in10.0 miSW (230°)3.5 mphClear
12:35 PM38.5 °F13.3 °F36 %30.22 in10.0 miCalmClear
12:55 PM39.2 °F13.6 °F35 %30.21 in10.0 miWest (270°)3.5 mphClear
1:15 PM39.6 °F13.6 °F35 %30.20 in10.0 miCalmClear
1:35 PM41.4 °F14.4 °F33 %30.18 in10.0 miSW (220°)4.6 mphClear
1:55 PM42.3 °F14.7 °F33 %30.17 in10.0 miWSW (240°)5.8 mphClear
2:15 PM42.3 °F14.4 °F32 %30.17 in10.0 miSW (230°)5.8 mphClear
2:35 PM42.4 °F14.2 °F32 %30.16 in10.0 miSW (230°)3.5 mphClear
2:55 PM42.4 °F14.2 °F32 %30.16 in10.0 miCalmClear
3:15 PM42.4 °F14.5 °F32 %30.16 in10.0 miSSW (200°)3.5 mphClear
3:35 PM43.2 °F15.1 °F32 %30.16 in10.0 miWSW (250°)3.5 mphClear
3:55 PM42.8 °F16.0 °F34 %30.16 in10.0 miWSW (240°)6.9 mphClear
4:15 PM42.1 °F17.4 °F37 %30.16 in10.0 miWest (260°)6.9 mphClear
4:35 PM41.0 °F18.3 °F40 %30.15 in10.0 miWSW (250°)6.9 mphClear
4:55 PM41.5 °F19.6 °F41 %30.15 in10.0 miSW (230°)5.8 mphClear
5:15 PM41.0 °F19.9 °F43 %30.15 in10.0 miWest (260°)4.6 mphClear
5:35 PM40.1 °F19.6 °F44 %30.15 in10.0 miCalmClear
5:55 PM37.4 °F20.1 °F50 %30.15 in10.0 miSE (130°)3.5 mphClear
6:15 PM35.4 °F20.1 °F54 %30.16 in10.0 miEast (80°)4.6 mphClear
6:35 PM32.4 °F20.1 °F61 %30.16 in10.0 miENE (70°)4.6 mphClear
6:55 PM32.2 °F19.9 °F61 %30.16 in10.0 miNNE (30°)4.6 mphClear
7:15 PM32.0 °F19.4 °F60 %30.17 in10.0 miENE (60°)5.8 mphClear
7:35 PM31.5 °F19.4 °F61 %30.17 in10.0 miCalmClear
7:55 PM31.8 °F19.6 °F61 %30.17 in10.0 miEast (80°)3.5 mphClear
8:15 PM30.9 °F19.0 °F61 %30.18 in10.0 miNE (40°)4.6 mphClear
8:35 PM28.9 °F18.9 °F66 %30.18 in10.0 miNE (40°)5.8 mphClear
8:55 PM28.8 °F19.2 °F68 %30.18 in10.0 miNNE (20°)6.9 mphClear
9:15 PM28.0 °F19.4 °F70 %30.19 in10.0 miNNE (30°)5.8 mphClear
9:35 PM30.0 °F20.3 °F67 %30.19 in10.0 miNE (40°)6.9 mphClear
9:55 PM30.2 °F20.1 °F66 %30.19 in10.0 miNE (40°)5.8 mphClear
10:15 PM29.1 °F20.3 °F70 %30.19 in10.0 miCalmClear
10:35 PM28.8 °F19.8 °F69 %30.20 in10.0 miCalmClear
10:55 PM27.7 °F20.3 °F74 %30.20 in10.0 miCalmClear
11:15 PM28.0 °F20.3 °F73 %30.20 in10.0 miCalmClear
11:35 PM28.2 °F19.9 °F71 %30.20 in10.0 miCalmClear
11:55 PM27.3 °F20.3 °F75 %30.19 in10.0 miENE (70°)3.5 mphClear
Hourly data recorded from KAJZ, located miles away from Paonia, Colorado







STORIES FROM OUR PARTNERS